Date String (YYYY-MM-DD hh:mm:ss) UTC,Instrument flags,absolute air pressure of the measurement (hPa),sample flow rate (lpm),inlet stack bypass flow (lpm),air temperature of the measurement (°C),ambient temperature measured by the external sensor (°C),aerosol sample conditioner tube jacket temperature (°C),OPC LED temperature (°C),internal box temperature (°C),relative humidity of the measurement (%),span deviation,mass concentration of particles derived from Lorenz-Mie calculation of OPC scattering (μg/m³),mass concentration of particles derived from Lorenz-Mie calculation of OPC scattering (μg/m³),mass concentration of particles derived from Lorenz-Mie calculation of OPC scattering (μg/m³)
DateTimeUTC,F1_M11,P_M11,Q1_M11,Q2_M11,T1_M11,T2_M11,T3_M11,T4_M11,T5_M11,U1_M11,ZSPAN_M11,X0_M11,X2_M11,X1_M11
2024-05-02 05:00:00,SystemResetWarning,0824.0,5.00,000.00,026.0,025.3,000.0,034.4,027.8,018.0,0000.0,0008.80,0003.01,0001.70
2024-05-02 05:01:00,SystemResetWarning,0824.0,5.00,000.00,026.0,025.3,000.0,034.4,027.8,018.0,0000.0,0009.09,0003.06,0001.70
2024-05-02 05:02:00,SystemResetWarning,0824.0,5.01,000.00,026.0,025.3,000.0,034.4,027.8,018.0,0000.0,0009.04,0003.06,0001.69
2024-05-02 05:03:00,SystemResetWarning,0824.0,5.01,000.00,026.0,025.3,000.0,034.4,027.8,018.0,0000.0,0008.76,0003.01,0001.68
2024-05-02 05:04:00,SystemResetWarning,0824.0,5.00,000.00,026.0,025.3,000.0,034.4,027.8,018.0,0000.0,0008.80,0003.04,0001.68
2024-05-02 05:05:00,SystemResetWarning,0824.0,5.00,000.00,026.0,025.3,000.0,034.4,027.8,018.1,0000.0,0009.27,0003.15,0001.69
2024-05-02 05:06:00,SystemResetWarning,0824.0,5.00,000.00,026.0,025.3,000.0,034.4,027.7,018.1,0000.0,0009.31,0003.16,0001.70
2024-05-02 05:07:00,SystemResetWarning,0824.0,4.99,000.00,026.0,025.3,000.0,034.4,027.7,018.0,0000.0,0009.02,0003.18,0001.72
2024-05-02 05:08:00,SystemResetWarning,0824.0,4.99,000.00,026.0,025.3,000.0,034.4,027.8,017.9,0000.0,0008.24,0003.14,0001.71
2024-05-02 05:09:00,SystemResetWarning,0824.0,5.01,000.00,026.0,025.3,000.0,034.4,027.8,017.9,0000.0,0007.76,0003.11,0001.70
2024-05-02 05:10:00,SystemResetWarning,0824.0,5.01,000.00,026.0,025.3,000.0,034.4,027.8,017.9,0000.0,0007.95,0003.09,0001.70
2024-05-02 05:11:00,SystemResetWarning,0824.1,5.00,000.00,026.0,025.3,000.0,034.4,027.8,017.9,0000.0,0007.80,0003.09,0001.70
2024-05-02 05:12:00,SystemResetWarning,0824.2,4.99,000.00,026.0,025.3,000.0,034.4,027.9,018.0,0000.0,0008.18,0003.08,0001.70
2024-05-02 05:13:00,SystemResetWarning,0824.2,5.00,000.00,026.0,025.3,000.0,034.4,027.8,018.0,0000.0,0008.20,0003.06,0001.68
2024-05-02 05:14:00,SystemResetWarning,0824.2,5.00,000.00,026.0,025.3,000.0,034.4,027.8,018.1,0000.0,0008.28,0003.06,0001.68
2024-05-02 05:15:00,SystemResetWarning,0824.3,5.00,000.00,026.0,025.4,000.0,034.4,027.8,018.1,0000.0,0008.55,0003.08,0001.68
2024-05-02 05:16:00,SystemResetWarning,0824.3,5.01,000.00,026.1,025.4,000.0,034.4,027.8,018.1,0000.0,0008.18,0002.99,0001.68
2024-05-02 05:17:00,SystemResetWarning,0824.3,5.00,000.00,026.1,025.4,000.0,034.4,027.8,018.1,0000.0,0008.05,0002.90,0001.66
2024-05-02 05:18:00,SystemResetWarning,0824.2,5.01,000.00,026.1,025.4,000.0,034.4,027.9,018.1,0000.0,0008.02,0002.86,0001.65
2024-05-02 05:19:00,SystemResetWarning,0824.1,5.00,000.00,026.1,025.4,000.0,034.5,027.9,018.1,0000.0,0008.16,0002.88,0001.65
2024-05-02 05:20:00,SystemResetWarning,0824.1,4.99,000.00,026.1,025.4,000.0,034.5,027.9,018.1,0000.0,0008.24,0002.91,0001.66
2024-05-02 05:21:00,SystemResetWarning,0824.2,4.99,000.00,026.1,025.4,000.0,034.5,027.9,018.2,0000.0,0007.93,0002.94,0001.65
2024-05-02 05:22:00,SystemResetWarning,0824.2,5.01,000.00,026.1,025.4,000.0,034.5,027.9,018.2,0000.0,0007.69,0002.91,0001.64
2024-05-02 05:23:00,SystemResetWarning,0824.3,4.99,000.00,026.1,025.4,000.0,034.5,027.9,018.2,0000.0,0006.88,0002.88,0001.63
2024-05-02 05:24:00,SystemResetWarning,0824.3,4.99,000.00,026.0,025.3,000.0,034.5,027.9,018.3,0000.0,0006.79,0002.90,0001.65
2024-05-02 05:25:00,SystemResetWarning,0824.3,5.00,000.00,026.0,025.3,000.0,034.5,027.8,018.3,0000.0,0006.95,0002.94,0001.65
2024-05-02 05:26:00,SystemResetWarning,0824.3,5.01,000.00,026.0,025.3,000.0,034.5,027.8,018.3,0000.0,0006.79,0002.92,0001.64
2024-05-02 05:27:00,SystemResetWarning,0824.4,5.00,000.00,026.0,025.3,000.0,034.5,027.9,018.3,0000.0,0007.54,0002.88,0001.62
2024-05-02 05:28:00,SystemResetWarning,0824.4,5.01,000.00,026.0,025.3,000.0,034.5,027.8,018.4,0000.0,0007.59,0002.95,0001.61
2024-05-02 05:29:00,SystemResetWarning,0824.4,5.00,000.00,026.0,025.2,000.0,034.5,027.7,018.4,0000.0,0007.59,0003.00,0001.61
2024-05-02 05:30:00,SystemResetWarning,0824.4,5.00,000.00,026.0,025.2,000.0,034.5,027.7,018.3,0000.0,0008.01,0003.01,0001.62
2024-05-02 05:31:00,SystemResetWarning,0824.4,4.99,000.00,025.9,025.1,000.0,034.4,027.6,018.4,0000.0,0008.58,0003.00,0001.62
2024-05-02 05:32:00,SystemResetWarning,0824.4,5.00,000.00,025.9,025.1,000.0,034.4,027.6,018.5,0000.0,0008.57,0002.99,0001.62
2024-05-02 05:33:00,SystemResetWarning,0824.4,5.01,000.00,025.9,025.1,000.0,034.4,027.6,018.6,0000.0,0008.62,0003.02,0001.60
2024-05-02 05:34:00,SystemResetWarning,0824.4,5.01,000.00,025.8,025.0,000.0,034.4,027.5,018.7,0000.0,0009.40,0003.01,0001.60
2024-05-02 05:35:00,SystemResetWarning,0824.4,5.00,000.00,025.8,025.0,000.0,034.4,027.5,018.7,0000.0,0009.36,0002.97,0001.60
2024-05-02 05:36:00,SystemResetWarning,0824.4,5.00,000.00,025.8,025.0,000.0,034.4,027.5,018.7,0000.0,0009.18,0002.94,0001.61
2024-05-02 05:37:00,SystemResetWarning,0824.3,5.00,000.00,025.8,025.0,000.0,034.3,027.4,018.8,0000.0,0009.10,0002.88,0001.61
2024-05-02 05:38:00,SystemResetWarning,0824.4,4.99,000.00,025.7,024.9,000.0,034.3,027.4,019.0,0000.0,0008.84,0002.88,0001.61
2024-05-02 05:39:00,SystemResetWarning,0824.4,5.00,000.00,025.7,024.9,000.0,034.3,027.4,019.0,0000.0,0008.81,0002.81,0001.60
2024-05-02 05:40:00,SystemResetWarning,0824.4,5.00,000.00,025.7,024.9,000.0,034.3,027.4,019.0,0000.0,0008.76,0002.75,0001.58
2024-05-02 05:41:00,SystemResetWarning,0824.4,5.02,000.00,025.7,024.9,000.0,034.2,027.4,019.0,0000.0,0008.37,0002.78,0001.58
2024-05-02 05:42:00,SystemResetWarning,0824.4,4.99,000.00,025.7,024.9,000.0,034.2,027.3,019.1,0000.0,0007.78,0002.83,0001.57
2024-05-02 05:43:00,SystemResetWarning,0824.5,4.99,000.00,025.6,024.8,000.0,034.2,027.3,019.1,0000.0,0007.69,0002.80,0001.58
2024-05-02 05:44:00,SystemResetWarning,0824.5,5.00,000.00,025.6,024.8,000.0,034.2,027.4,019.2,0000.0,0007.63,0002.77,0001.61
2024-05-02 05:45:00,SystemResetWarning,0824.7,5.01,000.00,025.6,024.8,000.0,034.2,027.4,019.2,0000.0,0006.40,0002.78,0001.63
2024-05-02 05:46:00,SystemResetWarning,0824.7,5.00,000.00,025.6,024.9,000.0,034.2,027.4,019.2,0000.0,0006.35,0002.81,0001.63
2024-05-02 05:47:00,SystemResetWarning,0824.7,5.00,000.00,025.6,024.9,000.0,034.2,027.5,019.4,0000.0,0006.35,0002.75,0001.62
2024-05-02 05:48:00,SystemResetWarning,0824.7,5.00,000.00,025.6,024.9,000.0,034.2,027.5,019.5,0000.0,0005.78,0002.70,0001.63
2024-05-02 05:49:00,SystemResetWarning,0824.7,5.00,000.00,025.7,024.9,000.0,034.2,027.5,019.3,0000.0,0005.21,0002.68,0001.65
2024-05-02 05:50:00,SystemResetWarning,0824.7,4.99,000.00,025.6,024.9,000.0,034.2,027.4,019.4,0000.0,0005.33,0002.75,0001.69
2024-05-02 05:51:00,SystemResetWarning,0824.7,4.99,000.00,025.6,024.9,000.0,034.2,027.4,019.4,0000.0,0005.42,0002.80,0001.72
2024-05-02 05:52:00,SystemResetWarning,0824.7,5.00,000.00,025.6,024.9,000.0,034.1,027.4,019.4,0000.0,0005.63,0002.85,0001.73
2024-05-02 05:53:00,SystemResetWarning,0824.7,5.00,000.00,025.6,024.9,000.0,034.1,027.4,019.4,0000.0,0005.51,0002.76,0001.75
2024-05-02 05:54:00,SystemResetWarning,0824.7,5.01,000.00,025.6,024.9,000.0,034.1,027.4,019.4,0000.0,0005.59,0002.79,0001.75
2024-05-02 05:55:00,SystemResetWarning,0824.8,5.01,000.00,025.6,024.9,000.0,034.1,027.4,019.4,0000.0,0005.76,0002.83,0001.74
2024-05-02 05:56:00,SystemResetWarning,0824.7,5.00,000.00,025.6,024.9,000.0,034.1,027.4,019.3,0000.0,0006.37,0002.86,0001.74
2024-05-02 05:57:00,SystemResetWarning,0824.8,5.01,000.00,025.6,024.9,000.0,034.1,027.4,019.2,0000.0,0006.37,0002.84,0001.75
2024-05-02 05:58:00,SystemResetWarning,0824.8,5.00,000.00,025.6,024.9,000.0,034.1,027.4,019.3,0000.0,0007.58,0002.84,0001.75
2024-05-02 05:59:00,SystemResetWarning,0824.8,5.00,000.00,025.6,024.9,000.0,034.1,027.5,019.3,0000.0,0007.62,0002.84,0001.72
